Time,TemperatureF,DewpointF,PressureIn,WindDirection,WindDirectionDegrees,WindSpeedMPH,WindSpeedGustMPH,Humidity,HourlyPrecipIn,Conditions,Clouds,dailyrainin,SoftwareType,DateUTC
2013-02-12 00:01:00,31.0,27.0,30.09,West,265,10.0,18.0,85,0.00,,,0.00,,2013-02-12 06:01:00,
2013-02-12 00:12:00,31.0,27.0,30.09,West,265,10.0,18.0,85,0.00,,,0.00,,2013-02-12 06:12:00,
2013-02-12 00:21:00,31.0,27.0,30.09,West,265,10.0,18.0,85,0.00,,,0.00,,2013-02-12 06:21:00,
2013-02-12 00:32:00,30.0,27.0,30.09,WSW,255,13.0,22.0,87,0.00,,,0.00,,2013-02-12 06:32:00,
2013-02-12 00:42:00,30.0,27.0,30.09,WSW,251,11.0,21.0,88,0.00,,,0.00,,2013-02-12 06:42:00,
2013-02-12 00:52:00,30.0,27.0,30.09,WSW,251,11.0,21.0,88,0.00,,,0.00,,2013-02-12 06:52:00,
2013-02-12 01:01:00,30.0,27.0,30.09,WSW,254,9.0,17.0,88,0.00,,,0.00,,2013-02-12 07:01:00,
2013-02-12 01:11:00,30.0,27.0,30.09,WSW,254,9.0,17.0,88,0.00,,,0.00,,2013-02-12 07:11:00,
2013-02-12 01:21:00,30.0,27.0,30.09,WSW,254,9.0,17.0,88,0.00,,,0.00,,2013-02-12 07:21:00,
2013-02-12 01:31:00,29.0,26.0,30.09,WSW,255,10.0,16.0,90,0.00,,,0.00,,2013-02-12 07:31:00,
2013-02-12 01:41:00,29.0,26.0,30.09,WSW,255,10.0,16.0,90,0.00,,,0.00,,2013-02-12 07:41:00,
2013-02-12 01:52:00,29.0,26.0,30.09,WSW,252,13.0,25.0,90,0.00,,,0.00,,2013-02-12 07:52:00,
2013-02-12 02:01:00,29.0,26.0,30.09,West,263,13.0,22.0,90,0.00,,,0.00,,2013-02-12 08:01:00,
2013-02-12 02:11:00,29.0,26.0,30.09,West,263,13.0,22.0,90,0.00,,,0.00,,2013-02-12 08:11:00,
2013-02-12 02:21:00,29.0,27.0,30.10,WSW,248,9.0,16.0,91,0.00,,,0.00,,2013-02-12 08:21:00,
2013-02-12 02:32:00,29.0,27.0,30.10,WSW,256,9.0,15.0,92,0.00,,,0.00,,2013-02-12 08:32:00,
2013-02-12 02:41:00,29.0,27.0,30.10,WSW,256,9.0,15.0,92,0.00,,,0.00,,2013-02-12 08:41:00,
2013-02-12 02:52:00,28.0,26.0,30.10,West,261,9.0,15.0,92,0.00,,,0.00,,2013-02-12 08:52:00,
2013-02-12 03:01:00,28.0,26.0,30.10,West,263,10.0,14.0,93,0.00,,,0.00,,2013-02-12 09:01:00,
2013-02-12 03:11:00,28.0,26.0,30.10,West,263,10.0,14.0,93,0.00,,,0.00,,2013-02-12 09:11:00,
2013-02-12 03:21:00,28.0,27.0,30.10,West,259,9.0,14.0,94,0.00,,,0.00,,2013-02-12 09:21:00,
2013-02-12 03:32:00,28.0,27.0,30.09,West,265,9.0,13.0,94,0.00,,,0.00,,2013-02-12 09:32:00,
2013-02-12 03:42:00,28.0,27.0,30.09,West,265,9.0,13.0,94,0.00,,,0.00,,2013-02-12 09:42:00,
2013-02-12 03:51:00,27.0,26.0,30.09,WSW,240,6.0,10.0,95,0.00,,,0.00,,2013-02-12 09:51:00,
2013-02-12 04:01:00,27.0,26.0,30.09,WSW,246,4.0,8.0,96,0.00,,,0.00,,2013-02-12 10:01:00,
2013-02-12 04:11:00,27.0,26.0,30.09,WSW,246,4.0,8.0,96,0.00,,,0.00,,2013-02-12 10:11:00,
2013-02-12 04:21:00,27.0,26.0,30.09,WSW,246,4.0,8.0,96,0.00,,,0.00,,2013-02-12 10:21:00,
2013-02-12 04:31:00,27.0,26.0,30.09,WSW,254,7.0,10.0,96,0.00,,,0.00,,2013-02-12 10:31:00,
2013-02-12 04:43:00,27.0,26.0,30.09,WSW,254,7.0,10.0,96,0.00,,,0.00,,2013-02-12 10:43:00,
2013-02-12 04:52:00,27.0,26.0,30.09,WSW,251,6.0,9.0,96,0.00,,,0.00,,2013-02-12 10:52:00,
2013-02-12 05:01:00,27.0,26.0,30.10,West,260,3.0,8.0,96,0.00,,,0.00,,2013-02-12 11:01:00,
2013-02-12 05:11:00,27.0,26.0,30.10,West,260,3.0,8.0,96,0.00,,,0.00,,2013-02-12 11:11:00,
2013-02-12 05:21:00,28.0,27.0,30.10,West,266,7.0,9.0,96,0.00,,,0.00,,2013-02-12 11:21:00,
2013-02-12 05:32:00,28.0,27.0,30.10,WNW,291,7.0,16.0,94,0.00,,,0.00,,2013-02-12 11:32:00,
2013-02-12 05:41:00,28.0,27.0,30.10,WNW,291,7.0,16.0,94,0.00,,,0.00,,2013-02-12 11:41:00,
2013-02-12 05:52:00,28.0,26.0,30.09,West,276,11.0,15.0,93,0.00,,,0.00,,2013-02-12 11:52:00,
2013-02-12 06:01:00,28.0,26.0,30.09,West,278,9.0,14.0,93,0.00,,,0.00,,2013-02-12 12:01:00,
2013-02-12 06:11:00,28.0,26.0,30.09,West,278,9.0,14.0,93,0.00,,,0.00,,2013-02-12 12:11:00,
2013-02-12 06:21:00,28.0,26.0,30.09,West,278,9.0,14.0,93,0.00,,,0.00,,2013-02-12 12:21:00,
2013-02-12 06:32:00,28.0,26.0,30.09,West,263,8.0,14.0,93,0.00,,,0.00,,2013-02-12 12:32:00,
2013-02-12 06:42:00,28.0,26.0,30.09,West,263,8.0,14.0,93,0.00,,,0.00,,2013-02-12 12:42:00,
2013-02-12 06:53:00,28.0,26.0,30.10,West,261,11.0,16.0,93,0.00,,,0.00,,2013-02-12 12:53:00,
2013-02-12 07:01:00,28.0,26.0,30.10,WSW,250,7.0,16.0,93,0.00,,,0.00,,2013-02-12 13:01:00,
2013-02-12 07:11:00,28.0,26.0,30.10,West,269,9.0,16.0,93,0.00,,,0.00,,2013-02-12 13:11:00,
2013-02-12 07:22:00,28.0,26.0,30.10,West,269,9.0,16.0,93,0.00,,,0.00,,2013-02-12 13:22:00,
2013-02-12 07:32:00,28.0,26.0,30.11,West,276,8.0,14.0,93,0.00,,,0.00,,2013-02-12 13:32:00,
2013-02-12 07:42:00,28.0,26.0,30.11,West,276,8.0,14.0,93,0.00,,,0.00,,2013-02-12 13:42:00,
2013-02-12 07:51:00,28.0,26.0,30.11,West,276,8.0,14.0,93,0.00,,,0.00,,2013-02-12 13:51:00,
2013-02-12 08:01:00,28.0,26.0,30.10,WSW,253,9.0,16.0,92,0.00,,,0.00,,2013-02-12 14:01:00,
2013-02-12 08:11:00,28.0,26.0,30.10,WSW,253,9.0,16.0,92,0.00,,,0.00,,2013-02-12 14:11:00,
2013-02-12 08:21:00,28.0,26.0,30.10,WSW,253,11.0,16.0,92,0.00,,,0.00,,2013-02-12 14:21:00,
2013-02-12 08:32:00,28.0,26.0,30.11,WSW,249,10.0,16.0,92,0.00,,,0.00,,2013-02-12 14:32:00,
2013-02-12 08:42:00,28.0,26.0,30.11,WSW,249,10.0,16.0,92,0.00,,,0.00,,2013-02-12 14:42:00,
2013-02-12 08:52:00,28.0,26.0,30.11,WSW,249,10.0,16.0,92,0.00,,,0.00,,2013-02-12 14:52:00,
2013-02-12 09:02:00,28.0,26.0,30.11,WSW,256,10.0,17.0,92,0.00,,,0.00,,2013-02-12 15:02:00,
2013-02-12 09:11:00,28.0,26.0,30.11,WSW,256,10.0,17.0,92,0.00,,,0.00,,2013-02-12 15:11:00,
2013-02-12 09:21:00,28.0,26.0,30.11,WSW,256,10.0,17.0,92,0.00,,,0.00,,2013-02-12 15:21:00,
2013-02-12 09:32:00,29.0,27.0,30.12,WSW,257,9.0,18.0,92,0.00,,,0.00,,2013-02-12 15:32:00,
2013-02-12 09:42:00,29.0,27.0,30.12,WSW,257,9.0,18.0,92,0.00,,,0.00,,2013-02-12 15:42:00,
2013-02-12 09:52:00,29.0,27.0,30.12,West,281,9.0,18.0,91,0.00,,,0.00,,2013-02-12 15:52:00,
2013-02-12 10:01:00,29.0,27.0,30.12,WSW,257,10.0,15.0,91,0.00,,,0.00,,2013-02-12 16:01:00,
2013-02-12 10:11:00,29.0,27.0,30.12,WSW,257,10.0,15.0,91,0.00,,,0.00,,2013-02-12 16:11:00,
2013-02-12 10:22:00,29.0,26.0,30.13,West,276,10.0,20.0,90,0.00,,,0.00,,2013-02-12 16:22:00,
2013-02-12 10:32:00,29.0,26.0,30.11,West,261,11.0,15.0,89,0.00,,,0.00,,2013-02-12 16:32:00,
2013-02-12 10:41:00,29.0,26.0,30.11,West,261,11.0,15.0,89,0.00,,,0.00,,2013-02-12 16:41:00,
2013-02-12 10:51:00,30.0,27.0,30.10,WSW,255,9.0,16.0,88,0.00,,,0.00,,2013-02-12 16:51:00,
2013-02-12 11:01:00,30.0,27.0,30.09,WNW,283,11.0,15.0,87,0.00,,,0.00,,2013-02-12 17:01:00,
2013-02-12 11:12:00,30.0,27.0,30.09,WNW,283,11.0,15.0,87,0.00,,,0.00,,2013-02-12 17:12:00,
2013-02-12 11:21:00,30.0,27.0,30.09,WNW,283,11.0,15.0,87,0.00,,,0.00,,2013-02-12 17:21:00,
2013-02-12 11:32:00,30.0,27.0,30.09,WNW,283,11.0,15.0,87,0.00,,,0.00,,2013-02-12 17:32:00,
2013-02-12 11:52:00,30.0,26.0,30.07,WNW,294,10.0,17.0,86,0.00,,,0.00,,2013-02-12 17:52:00,
2013-02-12 12:01:00,30.0,26.0,30.07,WNW,294,10.0,17.0,86,0.00,,,0.00,,2013-02-12 18:01:00,
2013-02-12 12:11:00,31.0,27.0,30.07,WNW,292,10.0,17.0,84,0.00,,,0.00,,2013-02-12 18:11:00,
2013-02-12 12:23:00,31.0,27.0,30.07,WNW,292,10.0,17.0,84,0.00,,,0.00,,2013-02-12 18:23:00,
2013-02-12 12:32:00,31.0,27.0,30.07,West,259,10.0,17.0,84,0.00,,,0.00,,2013-02-12 18:32:00,
2013-02-12 12:41:00,31.0,27.0,30.07,West,259,10.0,17.0,84,0.00,,,0.00,,2013-02-12 18:41:00,
2013-02-12 12:51:00,31.0,27.0,30.07,West,259,10.0,17.0,84,0.00,,,0.00,,2013-02-12 18:51:00,
2013-02-12 13:02:00,32.0,27.0,30.05,WNW,284,10.0,14.0,83,0.00,,,0.00,,2013-02-12 19:02:00,
2013-02-12 13:11:00,32.0,27.0,30.05,WNW,284,10.0,14.0,83,0.00,,,0.00,,2013-02-12 19:11:00,
2013-02-12 13:21:00,33.0,28.0,30.04,WNW,293,9.0,17.0,82,0.00,,,0.00,,2013-02-12 19:21:00,
2013-02-12 13:31:00,34.0,28.0,30.04,WNW,283,10.0,18.0,79,0.00,,,0.00,,2013-02-12 19:31:00,
2013-02-12 13:41:00,34.0,28.0,30.04,WNW,283,10.0,18.0,79,0.00,,,0.00,,2013-02-12 19:41:00,
2013-02-12 13:51:00,34.0,28.0,30.05,West,267,10.0,20.0,78,0.00,,,0.00,,2013-02-12 19:51:00,
2013-02-12 14:01:00,34.0,28.0,30.06,West,276,10.0,18.0,79,0.00,,,0.00,,2013-02-12 20:01:00,
2013-02-12 14:11:00,34.0,28.0,30.06,West,276,10.0,18.0,79,0.00,,,0.00,,2013-02-12 20:11:00,
2013-02-12 14:21:00,35.0,29.0,30.05,West,274,6.0,15.0,79,0.00,,,0.00,,2013-02-12 20:21:00,
2013-02-12 14:31:00,35.0,29.0,30.04,WNW,285,10.0,15.0,77,0.00,,,0.00,,2013-02-12 20:31:00,
2013-02-12 14:41:00,35.0,29.0,30.04,WNW,285,10.0,15.0,77,0.00,,,0.00,,2013-02-12 20:41:00,
2013-02-12 14:52:00,36.0,29.0,30.03,WNW,292,8.0,15.0,77,0.00,,,0.00,,2013-02-12 20:52:00,
2013-02-12 15:01:00,37.0,29.0,30.03,SW,227,7.0,17.0,74,0.00,,,0.00,,2013-02-12 21:01:00,
2013-02-12 15:11:00,37.0,29.0,30.03,SW,227,7.0,17.0,74,0.00,,,0.00,,2013-02-12 21:11:00,
2013-02-12 15:21:00,37.0,29.0,30.03,SW,227,7.0,17.0,74,0.00,,,0.00,,2013-02-12 21:21:00,
2013-02-12 15:31:00,37.0,29.0,30.03,WSW,244,9.0,16.0,73,0.00,,,0.00,,2013-02-12 21:31:00,
2013-02-12 15:42:00,37.0,29.0,30.03,SW,231,7.0,17.0,73,0.00,,,0.00,,2013-02-12 21:42:00,
2013-02-12 15:52:00,37.0,29.0,30.03,SW,231,7.0,17.0,73,0.00,,,0.00,,2013-02-12 21:52:00,
2013-02-12 16:01:00,37.0,29.0,30.02,WNW,290,9.0,12.0,72,0.00,,,0.00,,2013-02-12 22:01:00,
2013-02-12 16:12:00,37.0,29.0,30.02,WNW,290,9.0,12.0,72,0.00,,,0.00,,2013-02-12 22:12:00,
2013-02-12 16:21:00,38.0,30.0,30.01,West,277,6.0,12.0,72,0.00,,,0.00,,2013-02-12 22:21:00,
2013-02-12 16:32:00,37.0,29.0,30.00,WNW,285,7.0,13.0,72,0.00,,,0.00,,2013-02-12 22:32:00,
2013-02-12 16:41:00,37.0,29.0,30.00,WNW,285,7.0,13.0,72,0.00,,,0.00,,2013-02-12 22:41:00,
2013-02-12 16:51:00,37.0,29.0,30.00,West,259,7.0,12.0,74,0.00,,,0.00,,2013-02-12 22:51:00,
2013-02-12 17:01:00,37.0,29.0,29.99,West,272,5.0,10.0,74,0.00,,,0.00,,2013-02-12 23:01:00,
2013-02-12 17:11:00,37.0,29.0,29.99,West,272,5.0,10.0,74,0.00,,,0.00,,2013-02-12 23:11:00,
2013-02-12 17:21:00,37.0,29.0,29.99,West,272,5.0,10.0,74,0.00,,,0.00,,2013-02-12 23:21:00,
2013-02-12 17:32:00,36.0,30.0,29.98,SW,223,0.0,0.0,80,0.00,,,0.00,,2013-02-12 23:32:00,
2013-02-12 17:42:00,36.0,30.0,29.98,SW,223,0.0,0.0,80,0.00,,,0.00,,2013-02-12 23:42:00,
2013-02-12 17:52:00,36.0,30.0,29.98,SW,223,0.0,0.0,80,0.00,,,0.00,,2013-02-12 23:52:00,
2013-02-12 18:02:00,34.0,30.0,29.98,SW,223,0.0,0.0,84,0.00,,,0.00,,2013-02-13 00:02:00,
2013-02-12 18:11:00,34.0,30.0,29.98,SW,223,0.0,0.0,84,0.00,,,0.00,,2013-02-13 00:11:00,
2013-02-12 18:21:00,34.0,30.0,29.98,SW,223,0.0,0.0,84,0.00,,,0.00,,2013-02-13 00:21:00,
2013-02-12 18:32:00,34.0,30.0,29.98,SW,223,0.0,0.0,84,0.00,,,0.00,,2013-02-13 00:32:00,
2013-02-12 18:42:00,34.0,30.0,29.98,SW,223,0.0,0.0,84,0.00,,,0.00,,2013-02-13 00:42:00,
2013-02-12 18:52:00,32.0,30.0,29.97,SW,223,0.0,0.0,92,0.00,,,0.00,,2013-02-13 00:52:00,
2013-02-12 19:01:00,32.0,30.0,29.97,SW,223,0.0,0.0,92,0.00,,,0.00,,2013-02-13 01:01:00,
2013-02-12 19:11:00,32.0,30.0,29.97,SW,223,0.0,0.0,92,0.00,,,0.00,,2013-02-13 01:11:00,
2013-02-12 19:21:00,31.0,29.0,29.98,SW,223,0.0,0.0,94,0.00,,,0.00,,2013-02-13 01:21:00,
2013-02-12 19:31:00,31.0,29.0,29.98,SW,223,0.0,0.0,93,0.00,,,0.00,,2013-02-13 01:31:00,
2013-02-12 19:42:00,31.0,29.0,29.98,SW,223,0.0,0.0,93,0.00,,,0.00,,2013-02-13 01:42:00,
2013-02-12 19:51:00,31.0,30.0,29.97,SW,223,0.0,0.0,95,0.00,,,0.00,,2013-02-13 01:51:00,
2013-02-12 20:01:00,31.0,30.0,29.96,SW,223,0.0,0.0,95,0.00,,,0.00,,2013-02-13 02:01:00,
2013-02-12 20:11:00,31.0,30.0,29.96,SW,223,0.0,0.0,95,0.00,,,0.00,,2013-02-13 02:11:00,
2013-02-12 20:21:00,31.0,30.0,29.96,SW,223,0.0,0.0,95,0.00,,,0.00,,2013-02-13 02:21:00,
2013-02-12 20:31:00,30.0,29.0,29.95,SW,223,0.0,0.0,96,0.00,,,0.00,,2013-02-13 02:31:00,
2013-02-12 20:41:00,30.0,29.0,29.95,SW,223,0.0,0.0,96,0.00,,,0.00,,2013-02-13 02:41:00,
2013-02-12 20:52:00,30.0,29.0,29.95,SW,223,0.0,0.0,96,0.00,,,0.00,,2013-02-13 02:52:00,
2013-02-12 21:01:00,30.0,29.0,29.95,SW,223,0.0,0.0,97,0.00,,,0.00,,2013-02-13 03:01:00,
2013-02-12 21:11:00,30.0,29.0,29.95,SW,223,0.0,0.0,97,0.00,,,0.00,,2013-02-13 03:11:00,
2013-02-12 21:21:00,30.0,29.0,29.95,SW,223,0.0,0.0,97,0.00,,,0.00,,2013-02-13 03:21:00,
2013-02-12 21:32:00,30.0,29.0,29.95,SW,231,3.0,7.0,97,0.00,,,0.00,,2013-02-13 03:32:00,
2013-02-12 21:41:00,30.0,29.0,29.95,SW,231,3.0,7.0,97,0.00,,,0.00,,2013-02-13 03:41:00,
2013-02-12 21:51:00,30.0,29.0,29.95,SW,231,3.0,7.0,97,0.00,,,0.00,,2013-02-13 03:51:00,
2013-02-12 22:01:00,30.0,29.0,29.94,SSW,213,1.0,6.0,97,0.00,,,0.00,,2013-02-13 04:01:00,
2013-02-12 22:11:00,30.0,29.0,29.94,SSW,213,1.0,6.0,97,0.00,,,0.00,,2013-02-13 04:11:00,
2013-02-12 22:21:00,30.0,29.0,29.94,SSW,213,1.0,6.0,97,0.00,,,0.00,,2013-02-13 04:21:00,
2013-02-12 22:32:00,29.0,28.0,29.95,SW,221,2.0,6.0,97,0.00,,,0.00,,2013-02-13 04:32:00,
2013-02-12 22:41:00,29.0,28.0,29.95,SW,221,2.0,6.0,97,0.00,,,0.00,,2013-02-13 04:41:00,
2013-02-12 22:52:00,29.0,28.0,29.95,WSW,238,3.0,6.0,97,0.00,,,0.00,,2013-02-13 04:52:00,
2013-02-12 23:01:00,29.0,28.0,29.94,SW,233,2.0,7.0,97,0.00,,,0.00,,2013-02-13 05:01:00,
2013-02-12 23:11:00,30.0,29.0,29.94,SW,220,2.0,7.0,97,0.00,,,0.00,,2013-02-13 05:11:00,
2013-02-12 23:22:00,30.0,29.0,29.94,SW,220,2.0,7.0,97,0.00,,,0.00,,2013-02-13 05:22:00,
2013-02-12 23:31:00,30.0,29.0,29.94,SW,220,2.0,7.0,97,0.00,,,0.00,,2013-02-13 05:31:00,
2013-02-12 23:42:00,30.0,29.0,29.94,SW,220,2.0,7.0,97,0.00,,,0.00,,2013-02-13 05:42:00,
2013-02-12 23:52:00,29.0,28.0,29.93,SW,233,1.0,5.0,97,0.00,,,0.00,,2013-02-13 05:52:00,